Location: Ravensburg
(47.7866°N, 9.6124°E)
Time: 09:32:34
(UTC+02:00)

YUBILEINY - Pass Details

Date: 24 March 2026
Orbit: 1477 x 1509 km, 82.5° (Epoch: 17 April)

Event Time Altitude Azimuth Distance (km) Brightness Sun altitude
Rises 04:15:18 0° 344° (NNW) 4,615 ? -20.5°
Reaches altitude 10° 04:18:35 10° 335° (NNW) 3,629 ? -20.0°
Maximum altitude 04:25:45 30° 279° (W) 2,390 ? -18.9°
Enters shadow 04:28:21 26° 251° (WSW) 2,584 ? -18.5°
